• în România
  • Lista ţărilor
  • Pe 7 zile
  • Temperatura apei
  • Hartă satelitară
  • Meteo pe hartă
  • Widget-uri
  • user-avatar
    Intrare

    Meteo pe oră la Perth

    Astăzi, 20 Noiembrie, Luni

    Timp Temperatura Precipitaţii Vânt Presiune Umiditate
    00:00 +16°C° 0 mm 3 m/s 758 mmHg 81%
    01:00 +16°C° 0 mm 3 m/s 758 mmHg 82%
    02:00 +16°C° 0 mm 3 m/s 758 mmHg 82%
    03:00 +14°C° 0 mm 3 m/s 758 mmHg 82%
    04:00 +15°C° 0 mm 2 m/s 758 mmHg 82%
    05:00 +15°C° 0 mm 2 m/s 758 mmHg 83%
    06:00 +17°C° 0 mm 3 m/s 759 mmHg 75%
    07:00 +18°C° 0 mm 3 m/s 759 mmHg 67%
    08:00 +20°C° 0 mm 2 m/s 759 mmHg 57%
    09:00 +21°C° 0 mm 3 m/s 759 mmHg 53%
    10:00 +22°C° 0 mm 3 m/s 759 mmHg 48%
    11:00 +25°C° 0 mm 4 m/s 759 mmHg 44%
    12:00 +25°C° 0 mm 4 m/s 758 mmHg 43%
    13:00 +26°C° 0 mm 4 m/s 758 mmHg 41%
    14:00 +26°C° 0 mm 4 m/s 758 mmHg 40%
    15:00 +25°C° 0 mm 5 m/s 758 mmHg 44%
    16:00 +25°C° 0 mm 5 m/s 758 mmHg 47%
    17:00 +23°C° 0 mm 5 m/s 758 mmHg 50%
    18:00 +22°C° 0 mm 5 m/s 758 mmHg 58%
    19:00 +20°C° 0 mm 4 m/s 759 mmHg 66%
    20:00 +19°C° 0 mm 4 m/s 759 mmHg 73%
    21:00 +18°C° 0 mm 4 m/s 759 mmHg 77%
    22:00 +18°C° 0 mm 4 m/s 760 mmHg 81%
    23:00 +18°C° 0 mm 4 m/s 760 mmHg 86%

    Mâine, 21 Noiembrie, Marţi

    Timp Temperatura Precipitaţii Vânt Presiune Umiditate
    00:00 +17°C° 0 mm 4 m/s 760 mmHg 87%
    01:00 +17°C° 0 mm 4 m/s 760 mmHg 88%
    02:00 +15°C° 0 mm 4 m/s 760 mmHg 90%
    03:00 +15°C° 0 mm 4 m/s 760 mmHg 89%
    04:00 +15°C° 0 mm 4 m/s 761 mmHg 88%
    05:00 +14°C° 0 mm 5 m/s 761 mmHg 87%
    06:00 +16°C° 0 mm 5 m/s 761 mmHg 78%
    07:00 +17°C° 0 mm 5 m/s 762 mmHg 68%
    08:00 +19°C° 0 mm 5 m/s 762 mmHg 59%
    09:00 +21°C° 0 mm 5 m/s 762 mmHg 51%
    10:00 +23°C° 0 mm 5 m/s 762 mmHg 43%
    11:00 +25°C° 0 mm 4 m/s 762 mmHg 35%
    12:00 +26°C° 0 mm 5 m/s 761 mmHg 33%
    13:00 +27°C° 0 mm 5 m/s 761 mmHg 30%
    14:00 +28°C° 0 mm 5 m/s 761 mmHg 27%
    15:00 +28°C° 0 mm 6 m/s 760 mmHg 27%
    16:00 +28°C° 0 mm 6 m/s 760 mmHg 27%
    17:00 +27°C° 0 mm 6 m/s 760 mmHg 28%
    18:00 +26°C° 0 mm 6 m/s 761 mmHg 31%
    19:00 +23°C° 0 mm 5 m/s 761 mmHg 35%
    20:00 +21°C° 0 mm 5 m/s 761 mmHg 39%
    21:00 +21°C° 0 mm 5 m/s 762 mmHg 40%
    22:00 +20°C° 0 mm 5 m/s 762 mmHg 41%
    23:00 +20°C° 0 mm 6 m/s 763 mmHg 42%

    Poimâine, 22 Noiembrie, Miercuri

    Timp Temperatura Precipitaţii Vânt Presiune Umiditate
    00:00 +19°C° 0 mm 6 m/s 763 mmHg 44%
    01:00 +17°C° 0 mm 6 m/s 763 mmHg 46%
    02:00 +16°C° 0 mm 7 m/s 763 mmHg 49%
    03:00 +16°C° 0 mm 6 m/s 763 mmHg 49%
    04:00 +15°C° 0 mm 6 m/s 763 mmHg 49%
    05:00 +14°C° 0 mm 6 m/s 763 mmHg 49%
    06:00 +15°C° 0 mm 6 m/s 763 mmHg 46%
    07:00 +16°C° 0 mm 6 m/s 763 mmHg 43%
    08:00 +19°C° 0 mm 6 m/s 764 mmHg 39%
    09:00 +21°C° 0 mm 5 m/s 763 mmHg 34%
    10:00 +23°C° 0 mm 5 m/s 763 mmHg 29%
    11:00 +26°C° 0 mm 4 m/s 762 mmHg 24%
    12:00 +28°C° 0 mm 4 m/s 762 mmHg 21%
    13:00 +29°C° 0 mm 4 m/s 761 mmHg 19%
    14:00 +32°C° 0 mm 4 m/s 761 mmHg 17%
    15:00 +30°C° 0 mm 4 m/s 760 mmHg 18%
    16:00 +30°C° 0 mm 5 m/s 760 mmHg 19%
    17:00 +30°C° 0 mm 5 m/s 759 mmHg 20%
    18:00 +28°C° 0 mm 5 m/s 760 mmHg 25%
    19:00 +25°C° 0 mm 4 m/s 760 mmHg 30%
    20:00 +22°C° 0 mm 4 m/s 760 mmHg 35%
    21:00 +22°C° 0 mm 4 m/s 761 mmHg 34%
    22:00 +22°C° 0 mm 4 m/s 761 mmHg 33%
    23:00 +21°C° 0 mm 4 m/s 761 mmHg 32%

    23 Noiembrie, Joi

    Timp Temperatura Precipitaţii Vânt Presiune Umiditate
    00:00 +21°C° 0 mm 5 m/s 761 mmHg 37%
    01:00 +20°C° 0 mm 6 m/s 761 mmHg 42%
    02:00 +19°C° 0 mm 6 m/s 760 mmHg 47%
    03:00 +18°C° 0 mm 7 m/s 760 mmHg 48%
    04:00 +17°C° 0 mm 7 m/s 760 mmHg 50%
    05:00 +16°C° 0 mm 7 m/s 760 mmHg 51%
    06:00 +19°C° 0 mm 6 m/s 761 mmHg 48%
    07:00 +20°C° 0 mm 6 m/s 761 mmHg 44%
    08:00 +22°C° 0 mm 6 m/s 761 mmHg 41%
    09:00 +25°C° 0 mm 5 m/s 761 mmHg 36%
    10:00 +28°C° 0 mm 5 m/s 761 mmHg 31%
    11:00 +30°C° 0 mm 4 m/s 761 mmHg 25%
    12:00 +33°C° 0 mm 4 m/s 760 mmHg 23%
    13:00 +34°C° 0 mm 3 m/s 759 mmHg 20%
    14:00 +35°C° 0 mm 3 m/s 758 mmHg 18%
    15:00 +35°C° 0 mm 4 m/s 758 mmHg 19%
    16:00 +34°C° 0 mm 4 m/s 758 mmHg 20%
    17:00 +34°C° 0 mm 4 m/s 757 mmHg 21%
    18:00 +30°C° 0 mm 4 m/s 758 mmHg 25%
    19:00 +28°C° 0 mm 4 m/s 758 mmHg 29%
    20:00 +26°C° 0 mm 4 m/s 758 mmHg 34%
    21:00 +25°C° 0 mm 4 m/s 758 mmHg 32%
    22:00 +23°C° 0 mm 4 m/s 758 mmHg 31%
    23:00 +24°C° 0 mm 3 m/s 758 mmHg 30%

    24 Noiembrie, Vineri

    Timp Temperatura Precipitaţii Vânt Presiune Umiditate
    00:00 +23°C° 0 mm 4 m/s 758 mmHg 30%
    01:00 +22°C° 0 mm 4 m/s 757 mmHg 30%
    02:00 +22°C° 0 mm 5 m/s 757 mmHg 30%
    03:00 +21°C° 0 mm 5 m/s 757 mmHg 33%
    04:00 +21°C° 0 mm 5 m/s 757 mmHg 37%
    05:00 +20°C° 0 mm 5 m/s 757 mmHg 40%
    06:00 +22°C° 0 mm 4 m/s 757 mmHg 36%
    07:00 +25°C° 0 mm 4 m/s 757 mmHg 33%
    08:00 +26°C° 0 mm 4 m/s 758 mmHg 29%
    09:00 +29°C° 0 mm 3 m/s 757 mmHg 25%
    10:00 +33°C° 0 mm 3 m/s 757 mmHg 21%
    11:00 +36°C° 0 mm 2 m/s 757 mmHg 16%
    12:00 +36°C° 0 mm 3 m/s 756 mmHg 16%
    13:00 +37°C° 0 mm 4 m/s 755 mmHg 16%
    14:00 +37°C° 0 mm 4 m/s 755 mmHg 16%
    15:00 +36°C° 0 mm 5 m/s 755 mmHg 18%
    16:00 +35°C° 0 mm 5 m/s 754 mmHg 20%
    17:00 +34°C° 0 mm 5 m/s 754 mmHg 22%
    18:00 +32°C° 0 mm 5 m/s 755 mmHg 26%
    19:00 +29°C° 0 mm 5 m/s 755 mmHg 30%
    20:00 +27°C° 0 mm 5 m/s 755 mmHg 34%
    21:00 +26°C° 0 mm 5 m/s 755 mmHg 35%
    22:00 +26°C° 0 mm 5 m/s 755 mmHg 36%
    23:00 +25°C° 0 mm 5 m/s 755 mmHg 38%

    25 Noiembrie, Sâmbătă

    Timp Temperatura Precipitaţii Vânt Presiune Umiditate
    00:00 +23°C° 0 mm 5 m/s 755 mmHg 40%
    01:00 +23°C° 0 mm 4 m/s 755 mmHg 43%
    02:00 +22°C° 0 mm 4 m/s 755 mmHg 46%
    03:00 +21°C° 0 mm 4 m/s 755 mmHg 48%
    04:00 +21°C° 0 mm 4 m/s 755 mmHg 51%
    05:00 +20°C° 0 mm 4 m/s 755 mmHg 54%
    06:00 +22°C° 0 mm 4 m/s 756 mmHg 49%
    07:00 +23°C° 0 mm 4 m/s 756 mmHg 45%
    08:00 +26°C° 0 mm 4 m/s 756 mmHg 41%
    09:00 +29°C° 0 mm 4 m/s 756 mmHg 35%
    10:00 +33°C° 0 mm 4 m/s 755 mmHg 29%
    11:00 +35°C° 0 mm 4 m/s 755 mmHg 23%
    12:00 +36°C° 0 mm 4 m/s 754 mmHg 22%
    13:00 +37°C° 0 mm 5 m/s 754 mmHg 21%
    14:00 +39°C° 0 mm 5 m/s 753 mmHg 20%
    15:00 +38°C° 0 mm 6 m/s 753 mmHg 24%
    16:00 +36°C° 0 mm 7 m/s 753 mmHg 27%
    17:00 +34°C° 0 mm 8 m/s 753 mmHg 30%
    18:00 +33°C° 0 mm 7 m/s 753 mmHg 33%
    19:00 +30°C° 0 mm 7 m/s 754 mmHg 37%
    20:00 +28°C° 0 mm 7 m/s 754 mmHg 41%
    21:00 +27°C° 0 mm 7 m/s 754 mmHg 43%
    22:00 +26°C° 0 mm 7 m/s 755 mmHg 46%
    23:00 +24°C° 0 mm 7 m/s 755 mmHg 48%
    Arată mai mult